TimeEDT,TemperatureF,Dew PointF,Humidity,Sea Level PressureIn,VisibilityMPH,Wind Direction,Wind SpeedMPH,Gust SpeedMPH,PrecipitationIn,Events,Conditions,WindDirDegrees,DateUTC
12:52 AM,59.0,53.1,81,29.97,10.0,Calm,Calm,-,N/A,,Clear,0,2012-10-02 04:52:00
1:52 AM,57.9,54.0,87,29.97,10.0,Calm,Calm,-,N/A,,Mostly Cloudy,0,2012-10-02 05:52:00
2:52 AM,59.0,53.1,81,29.99,10.0,Calm,Calm,-,N/A,,Overcast,0,2012-10-02 06:52:00
3:52 AM,60.1,53.1,78,29.99,10.0,Calm,Calm,-,N/A,,Overcast,0,2012-10-02 07:52:00
4:52 AM,60.1,54.0,80,29.99,10.0,Calm,Calm,-,N/A,,Overcast,0,2012-10-02 08:52:00
5:52 AM,60.1,54.0,80,30.01,10.0,Calm,Calm,-,N/A,,Overcast,0,2012-10-02 09:52:00
6:52 AM,60.1,55.0,83,30.01,10.0,North,3.5,-,N/A,,Overcast,10,2012-10-02 10:52:00
7:52 AM,61.0,55.9,83,30.02,10.0,NNE,3.5,-,N/A,,Overcast,30,2012-10-02 11:52:00
8:52 AM,62.6,57.2,82,30.04,10.0,Calm,Calm,-,N/A,,Overcast,0,2012-10-02 12:52:00
9:52 AM,64.9,57.9,78,30.04,10.0,NE,4.6,-,N/A,,Overcast,50,2012-10-02 13:52:00
10:52 AM,68.0,60.1,76,30.04,10.0,ENE,5.8,-,N/A,,Scattered Clouds,70,2012-10-02 14:52:00
11:52 AM,69.1,55.9,63,30.02,10.0,East,4.6,-,N/A,,Overcast,90,2012-10-02 15:52:00
12:52 PM,68.0,57.0,68,30.03,10.0,Calm,Calm,-,0.00,Rain,Light Rain,0,2012-10-02 16:52:00
1:34 PM,64.4,60.8,88,30.04,2.5,NNW,3.5,-,0.05,Rain,Rain,340,2012-10-02 17:34:00
1:52 PM,64.0,60.1,87,30.03,3.0,NNE,4.6,-,0.12,Rain,Rain,20,2012-10-02 17:52:00
2:52 PM,63.0,59.0,87,30.02,5.0,SE,3.5,-,0.08,Rain,Light Rain,130,2012-10-02 18:52:00
3:52 PM,63.0,60.1,90,30.01,7.0,East,5.8,-,0.06,Rain,Light Rain,80,2012-10-02 19:52:00
4:52 PM,64.0,60.1,87,30.00,7.0,East,9.2,-,0.03,Rain,Light Rain,80,2012-10-02 20:52:00
5:48 PM,62.6,59.0,88,30.01,1.8,ENE,8.1,-,0.04,Rain,Rain,60,2012-10-02 21:48:00
5:52 PM,62.1,60.1,93,30.01,1.5,NE,5.8,-,0.07,Rain,Heavy Rain,50,2012-10-02 21:52:00
6:00 PM,62.6,60.8,94,30.01,3.0,NE,5.8,-,0.02,Rain,Rain,50,2012-10-02 22:00:00
6:28 PM,62.6,59.0,88,30.00,5.0,NE,5.8,-,0.03,Rain,Rain,40,2012-10-02 22:28:00
6:39 PM,60.8,59.0,94,30.00,4.0,NE,6.9,-,0.05,Rain,Rain,50,2012-10-02 22:39:00
6:52 PM,61.0,60.1,97,30.01,2.5,NNE,5.8,-,0.10,Rain,Rain,30,2012-10-02 22:52:00
7:19 PM,62.6,60.8,94,29.99,3.0,East,9.2,-,0.11,Rain,Light Rain,80,2012-10-02 23:19:00
7:41 PM,62.6,62.6,100,30.00,6.0,ENE,10.4,-,0.12,,Overcast,70,2012-10-02 23:41:00
7:52 PM,63.0,62.1,97,30.00,6.0,ENE,10.4,-,0.12,,Overcast,70,2012-10-02 23:52:00
8:18 PM,62.6,60.8,94,30.00,4.0,NE,8.1,-,0.02,Rain,Light Rain,50,2012-10-03 00:18:00
8:41 PM,62.6,60.8,94,30.01,1.8,NE,6.9,-,0.03,,Overcast,50,2012-10-03 00:41:00
8:52 PM,62.1,61.0,96,30.01,1.8,NNE,8.1,-,0.03,Rain,Light Rain,30,2012-10-03 00:52:00
9:01 PM,62.6,60.8,94,30.01,2.0,NNE,8.1,-,0.00,Rain,Light Rain,30,2012-10-03 01:01:00
9:16 PM,62.6,60.8,94,30.01,3.0,NNE,8.1,-,0.00,,Overcast,30,2012-10-03 01:16:00
9:52 PM,62.6,60.8,94,30.01,4.0,NNE,6.9,-,N/A,Rain,Light Rain,30,2012-10-03 01:52:00
10:39 PM,62.6,60.8,94,30.00,2.0,NE,6.9,-,0.02,Rain,Light Rain,40,2012-10-03 02:39:00
10:50 PM,62.6,60.8,94,30.00,5.0,NE,5.8,-,0.02,,Overcast,40,2012-10-03 02:50:00
10:52 PM,63.0,61.0,93,30.01,5.0,NE,5.8,-,0.02,,Overcast,40,2012-10-03 02:52:00
11:52 PM,63.0,62.1,97,30.00,5.0,NNE,5.8,-,0.00,,Overcast,30,2012-10-03 03:52:00